[Iaude] MPEC P24: 2020 OY6 [a=2.12,e=0.61,i=7.1,H=19.3]

mpec at marsden.cfa.harvard.edu mpec at marsden.cfa.harvard.edu
Fri Aug 7 00:16:54 EDT 2020


M.P.E.C. 2020-P24                                Issued 2020 August 7, 04:15 UT

     The Minor Planet Electronic Circulars contain information on unusual
         minor planets and routine data on comets.  They are published
    on behalf of Division F of the International Astronomical Union by the
          Minor Planet Center, Smithsonian Astrophysical Observatory,
                          Cambridge, MA 02138, U.S.A.

             Prepared using the Tamkin Foundation Computer Network

                              MPC at CFA.HARVARD.EDU
            URL https://www.minorplanetcenter.net/    ISSN 1523-6714

                                    2020 OY6                                    


Observations:
     K20O06Y* C2020 07 25.59453603 04 38.335+25 44 41.68         21.53wUEP024F51
     K20O06Y  C2020 07 25.59993303 04 39.960+25 44 48.20         21.39wUEP024F51
     K20O06Y  C2020 07 25.60533803 04 41.634+25 44 54.43         21.60wUEP024F51
     K20O06Y  C2020 07 25.61075803 04 43.300+25 45 00.71         21.59wUEP024F51
     K20O06Y  C2020 07 30.55915403 31 21.231+27 13 21.06         21.62wUEP024F51
     K20O06Y  C2020 07 30.57139603 31 25.285+27 13 33.52         21.71wUEP024F51
     K20O06Y  C2020 07 30.59594003 31 33.450+27 13 58.06         21.40wUEP024F51
     K20O06Y  C2020 07 31.58453703 37 07.318+27 29 47.40         21.82wUEP024F51
     K20O06Y  C2020 07 31.59169803 37 09.722+27 29 54.27         21.53wUEP024F51
     K20O06Y  C2020 07 31.59527503 37 10.939+27 29 57.72         21.54wUEP024F51
     K20O06Y pC2020 08 01.07201003 39 53.58 +27 37 15.9          21.2 GVEP024L01
     K20O06Y KC2020 08 01.07549603 39 54.74 +27 37 19.3          21.2 GVEP024L01
     K20O06Y KC2020 08 01.07898303 39 55.90 +27 37 22.9          21.3 GVEP024L01
     K20O06Y pC2020 08 01.08404403 39 57.69 +27 37 27.3          21.4 GVEP024L01
     K20O06Y  C2020 08 01.59186903 42 52.277+27 45 12.32         21.54wUEP024F51
     K20O06Y  C2020 08 01.59419803 42 53.042+27 45 14.53         21.61GVEP024F52
     K20O06Y  C2020 08 01.60572503 42 57.008+27 45 24.94         21.12GVEP024F52
     K20O06Y  C2020 08 01.60665203 42 57.330+27 45 25.84         21.52wUEP024F51
     K20O06Y  C2020 08 01.61414503 42 59.882+27 45 32.53         21.49wUEP024F51
     K20O06Y  C2020 08 01.61724003 43 00.912+27 45 35.42         21.65GVEP024F52

Observer details:
F51 Pan-STARRS 1, Haleakala.  Observers J. Bulger, T. Lowe, A. Schultz, M.
    Willman.  Measurers K. Chambers, S. Chastel, T. de Boer, L. Denneau, J.
    Fairlamb, H. Flewelling, M. Huber, C.-C. Lin, E. Magnier, Y. Ramanjooloo,
    R. Wainscoat, R. Weryk.  1.8-m Ritchey-Chretien + CCD.
F52 Pan-STARRS 2, Haleakala.  Observers J. Bulger, K. Chambers, T. Dukes, T.
    Lowe, A. Schultz, M. Willman.  Measurers S. Chastel, M. Huber, Y.
    Ramanjooloo, R. Wainscoat, R. Weryk.  1.8-m Ritchey-Chretien + CCD.
L01 Visnjan Observatory, Tican.  Observer K. Korlevic.  1.0-m f/2.9 reflector
    + CCD.

Orbital elements:
2020 OY6                                                 Earth MOID = 0.0942 AU
Epoch 2020 July 30.0 TT = JDT 2459060.5                 Bell                    
M 341.04998              (2000.0)            P               Q                  
n   0.31838478     Peri.  180.92561     +0.22372915     -0.96729815             
a   2.1240652      Node   256.15324     +0.89501412     +0.25243849             
e   0.6062507      Incl.    7.06953     +0.38586914     -0.02467992             
P   3.10           H   19.34          G   0.15           U   9                  
Residuals in seconds of arc
200725 F51  0.3+  0.1-    200731 F51  0.1+  0.0+    200801 F51  0.2+  0.0+
200725 F51  0.2-  0.1+    200731 F51  0.1-  0.0+    200801 F52  0.2-  0.1+
200725 F51  0.1-  0.0+    200731 F51  0.1+  0.0+    200801 F52  0.1+  0.0+
200725 F51  0.1-  0.0+    200801 L01  0.1-  0.6-    200801 F51  0.2+  0.1+
200730 F51  0.2+  0.2-    200801 L01  0.5-  0.4-    200801 F51  0.0+  0.1-
200730 F51  0.1-  0.0+    200801 L01  0.9-  0.1-    200801 F52  0.4-  0.0-
200730 F51  0.1-  0.0+    200801 L01  0.0-  0.4-

Ephemeris:
2020 OY6                 a,e,i = 2.12, 0.61, 7                   q = 0.8363
Date    TT    R. A. (2000) Decl.     Delta      r    Elong.  Phase     V
2020 07 08    01 45 42.9 +19 23 35   1.2234  1.3688    74.7    45.8    22.2
...
2020 07 23    02 51 28.7 +24 53 25   1.0653  1.2342    72.7    51.8    21.8
...
2020 07 31    03 33 48.6 +27 20 30   1.0023  1.1637    70.5    55.3    21.7
...
2020 08 06    04 08 55.8 +28 43 08   0.9666  1.1122    68.3    57.9    21.6
2020 08 07    04 15 02.2 +28 53 53   0.9617  1.1038    67.9    58.3    21.6
2020 08 08    04 21 12.6 +29 03 40   0.9571  1.0954    67.5    58.7    21.6
...
2020 08 14    04 59 24.4 +29 40 09   0.9358  1.0464    64.8    61.2    21.5
...
2020 08 22    05 52 04.6 +29 22 53   0.9251  0.9856    61.0    63.8    21.4
...
2020 09 06    07 27 35.4 +25 30 27   0.9575  0.8927    54.0    65.9    21.3

M. P. C. Staff               (C) Copyright 2020 MPC           M.P.E.C. 2020-P24




More information about the Iaude mailing list